H1 CPF 2 NER 2025 8 21 9 233 01 glonass142 H2 2001801 9142 45358 2025 8 21 0 0 0 2025 8 24 23 45 0 900 1 1 0 0 0 1 H9 10 0 60908 0.00000 0 6547281.156 10037608.733 22538709.950 10 0 60908 900.00000 0 3770539.832 10430693.466 22989073.747 10 0 60908 1800.00000 0 1002114.052 11030673.663 22993871.231 10 0 60908 2700.00000 0 -1689954.888 11822865.365 22552891.854 10 0 60908 3600.00000 0 -4241443.332 12780969.682 21674549.299 10 0 60908 4500.00000 0 -6594368.586 13868127.657 20375730.374 10 0 60908 5400.00000 0 -8699152.654 15038437.148 18681481.494 10 0 60908 6300.00000 0 -10516437.239 16238869.680 16624537.522 10 0 60908 7200.00000 0 -12018474.811 17411508.222 14244700.681 10 0 60908 8100.00000 0 -13190037.921 18496012.966 11588080.216 10 0 60908 9000.00000 0 -14028808.641 19432212.053 8706206.327 10 0 60908 9900.00000 0 -14545231.697 20162708.279 5655034.741 10 0 60908 10800.00000 0 -14761837.300 20635391.498 2493860.742 10 0 60908 11700.00000 0 -14712062.206 20805749.805 -715836.225 10 0 60908 12600.00000 0 -14438618.940 20638880.631 -3911594.496 10 0 60908 13500.00000 0 -13991482.565 20111115.221 -7031194.458 10 0 60908 14400.00000 0 -13425580.897 19211186.249 -10013880.281 10 0 60908 15300.00000 0 -12798286.955 17940887.613 -12801554.036 10 0 60908 16200.00000 0 -12166820.968 16315197.162 -15339917.757 10 0 60908 17100.00000 0 -11585673.179 14361855.976 -17579540.108 10 0 60908 18000.00000 0 -11104157.687 12120421.050 -19476825.975 10 0 60908 18900.00000 0 -10764201.856 9640830.622 -20994869.565 10 0 60908 19800.00000 0 -10598465.452 6981542.023 -22104174.146 10 0 60908 20700.00000 0 -10628869.497 4207319.919 -22783224.470 10 0 60908 21600.00000 0 -10865597.038 1386767.421 -23018901.059 10 0 60908 22500.00000 0 -11306607.874 -1410296.951 -22806728.826 10 0 60908 23400.00000 0 -11937687.333 -4115507.165 -22150955.819 10 0 60908 24300.00000 0 -12733026.491 -6664551.676 -21064461.242 10 0 60908 25200.00000 0 -13656308.783 -8999601.780 -19568495.198 10 0 60908 26100.00000 0 -14662256.595 -11071466.121 -17692255.841 10 0 60908 27000.00000 0 -15698572.102 -12841382.859 -15472312.694 10 0 60908 27900.00000 0 -16708190.119 -14282376.355 -12951887.796 10 0 60908 28800.00000 0 -17631747.695 -15380123.527 -10180009.073 10 0 60908 29700.00000 0 -18410166.170 -16133295.677 -7210552.738 10 0 60908 30600.00000 0 -18987236.858 -16553363.575 -4101193.622 10 0 60908 31500.00000 0 -19312101.485 -16663876.007 -912284.117 10 0 60908 32400.00000 0 -19341523.053 -16499243.902 2294316.340 10 0 60908 33300.00000 0 -19041851.822 -16103082.824 5456438.419 10 0 60908 34200.00000 0 -18390603.847 -15526184.707 8512803.513 10 0 60908 35100.00000 0 -17377585.997 -14824205.114 11404204.779 10 0 60908 36000.00000 0 -16005520.320 -14055163.833 14074646.129 10 0 60908 36900.00000 0 -14290141.415 -13276863.952 16472417.735 10 0 60908 37800.00000 0 -12259762.335 -12544337.674 18551088.059 10 0 60908 38700.00000 0 -9954326.443 -11907425.721 20270394.147 10 0 60908 39600.00000 0 -7423983.722 -11408591.353 21597013.915 10 0 60908 40500.00000 0 -4727249.488 -11081060.115 22505206.426 10 0 60908 41400.00000 0 -1928820.400 -10947362.890 22977308.504 10 0 60908 42300.00000 0 902863.259 -11018343.143 23004078.541 10 0 60908 43200.00000 0 3698209.731 -11292670.122 22584880.984 10 0 60908 44100.00000 0 6389116.626 -11756878.942 21727707.599 10 0 60908 45000.00000 0 8911552.429 -12385936.778 20449034.456 10 0 60908 45900.00000 0 11207972.831 -13144312.545 18773516.347 10 0 60908 46800.00000 0 13229472.402 -13987506.487 16733523.247 10 0 60908 47700.00000 0 14937582.583 -14863976.653 14368526.423 10 0 60908 48600.00000 0 16305641.260 -15717382.344 11724344.666 10 0 60908 49500.00000 0 17319676.634 -16489050.787 8852264.078 10 0 60908 50400.00000 0 17978768.098 -17120563.356 5808047.611 10 0 60908 51300.00000 0 18294868.728 -17556351.966 2650853.079 10 0 60908 52200.00000 0 18292096.621 -17746195.262 -557919.355 10 0 60908 53100.00000 0 18005524.910 -17647507.911 -3755827.403 10 0 60908 54000.00000 0 17479521.766 -17227324.689 -6880610.438 10 0 60908 54900.00000 0 16765711.014 -16463893.760 -9871411.983 10 0 60908 55800.00000 0 15920640.382 -15347810.051 -12669975.823 10 0 60908 56700.00000 0 15003257.026 -13882639.180 -15221791.244 10 0 60908 57600.00000 0 14072298.174 -12085004.120 -17477163.976 10 0 60908 58500.00000 0 13183708.364 -9984129.792 -19392191.068 10 0 60908 59400.00000 0 12388193.368 -7620863.819 -20929620.134 10 0 60908 60300.00000 0 11729014.857 -5046213.947 -22059575.984 10 0 60908 61200.00000 0 11240119.302 -2319463.074 -22760140.530 10 0 60908 62100.00000 0 10944680.103 494059.442 -23017775.002 10 0 60908 63000.00000 0 10854114.103 3325457.281 -22827576.790 10 0 60908 63900.00000 0 10967613.366 6104894.139 -22193366.530 10 0 60908 64800.00000 0 11272211.123 8764258.986 -21127604.447 10 0 60908 65700.00000 0 11743378.156 11239759.073 -19651138.229 10 0 60908 66600.00000 0 12346123.475 13474333.366 -17792787.964 10 0 60908 67500.00000 0 13036551.951 15419786.856 -15588776.751 10 0 60908 68400.00000 0 13763812.371 17038558.073 -13082018.504 10 0 60908 69300.00000 0 14472353.058 18305047.539 -10321277.234 10 0 60908 70200.00000 0 15104389.362 19206453.388 -7360214.477 10 0 60908 71100.00000 0 15602478.613 19743081.138 -4256343.696 10 0 60908 72000.00000 0 15912093.743 19928116.528 -1069912.255 10 0 60908 72900.00000 0 15984087.025 19786872.781 2137267.140 10 0 60908 73800.00000 0 15776940.106 19355545.463 5303012.804 10 0 60908 74700.00000 0 15258705.702 18679528.636 8365975.037 10 0 60908 75600.00000 0 14408559.402 17811364.177 11266818.606 10 0 60908 76500.00000 0 13217896.349 16808410.961 13949364.312 10 0 60908 77400.00000 0 11690926.622 15730332.054 16361668.101 10 0 60908 78300.00000 0 9844743.998 14636505.278 18457017.618 10 0 60908 79200.00000 0 7708864.446 13583465.292 20194827.909 10 0 60908 80100.00000 0 5324252.656 12622483.809 21541419.837 10 0 60908 81000.00000 0 2741875.747 11797388.549 22470667.127 10 0 60908 81900.00000 0 20842.723 11142711.535 22964500.251 10 0 60908 82800.00000 0 -2773794.881 10682243.684 23013257.891 10 0 60908 83700.00000 0 -5573491.774 10428055.882 22615879.339 10 0 60908 84600.00000 0 -8308807.451 10380027.532 21779933.827 10 0 60908 85500.00000 0 -10912048.350 10525902.715 20521485.569 10 0 60909 0.00000 0 -13319845.267 10841872.214 18864796.271 10 0 60909 900.00000 0 -15475561.236 11293658.104 16841868.641 10 0 60909 1800.00000 0 -17331427.216 11838055.871 14491840.619 10 0 60909 2700.00000 0 -18850321.109 12424870.673 11860237.738 10 0 60909 3600.00000 0 -20007112.518 12999166.538 8998098.987 10 0 60909 4500.00000 0 -20789517.908 13503734.119 5960991.417 10 0 60909 5400.00000 0 -21198429.657 13881672.713 2807932.243 10 0 60909 6300.00000 0 -21247704.717 14078976.824 -399760.725 10 0 60909 7200.00000 0 -20963421.436 14047016.850 -3599667.540 10 0 60909 8100.00000 0 -20382635.825 13744807.483 -6729489.384 10 0 60909 9000.00000 0 -19551689.955 13140966.161 -9728271.783 10 0 60909 9900.00000 0 -18524144.455 12215276.878 -12537602.686 10 0 60909 10800.00000 0 -17358423.248 10959791.479 -15102760.833 10 0 60909 11700.00000 0 -16115270.975 9379420.239 -17373790.942 10 0 60909 12600.00000 0 -14855131.486 7491985.377 -19306483.817 10 0 60909 13500.00000 0 -13635558.995 5327734.124 -20863241.726 10 0 60909 14400.00000 0 -12508771.797 2928330.886 -22013811.911 10 0 60909 15300.00000 0 -11519452.102 345370.226 -22735873.973 10 0 60909 16200.00000 0 -10702884.696 -2361527.470 -23015470.030 10 0 60909 17100.00000 0 -10083512.462 -5126958.306 -22847269.772 10 0 60909 18000.00000 0 -9673968.848 -7882221.683 -22234665.911 10 0 60909 18900.00000 0 -9474626.984 -10557948.148 -21189698.842 10 0 60909 19800.00000 0 -9473683.187 -13086759.086 -19732812.662 10 0 60909 20700.00000 0 -9647769.981 -15405847.908 -17892447.914 10 0 60909 21600.00000 0 -9963071.466 -17459375.916 -15704479.527 10 0 60909 22500.00000 0 -10376892.722 -19200583.926 -13211511.331 10 0 60909 23400.00000 0 -10839615.964 -20593532.707 -10462041.295 10 0 60909 24300.00000 0 -11296959.953 -21614401.007 -7509514.052 10 0 60909 25200.00000 0 -11692446.659 -22252288.500 -4411279.417 10 0 60909 26100.00000 0 -11969970.501 -22509491.637 -1227477.410 10 0 60909 27000.00000 0 -12076361.549 -22401242.679 1980128.350 10 0 60909 27900.00000 0 -11963834.347 -21954924.252 5149346.196 10 0 60909 28800.00000 0 -11592219.124 -21208793.770 8218757.706 10 0 60909 29700.00000 0 -10930881.416 -20210272.420 11128901.659 10 0 60909 30600.00000 0 -9960249.378 -19013871.216 13823418.136 10 0 60909 31500.00000 0 -8672884.471 -17678841.490 16250131.153 10 0 60909 32400.00000 0 -7074050.233 -16266648.196 18362049.727 10 0 60909 33300.00000 0 -5181754.712 -14838371.523 20118268.898 10 0 60909 34200.00000 0 -3026263.826 -13452144.921 21484754.234 10 0 60909 35100.00000 0 -649104.652 -12160735.837 22434995.597 10 0 60909 36000.00000 0 1898401.488 -11009369.377 22950518.262 10 0 60909 36900.00000 0 4557016.956 -10033884.995 23021242.041 10 0 60909 37800.00000 0 7261800.727 -9259302.534 22645681.590 10 0 60909 38700.00000 0 9944566.473 -8698857.155 21830983.798 10 0 60909 39600.00000 0 12536485.588 -8353543.383 20592800.894 10 0 60909 40500.00000 0 14970728.704 -8212187.589 18955000.727 10 0 60909 41400.00000 0 17185037.171 -8252046.317 16949218.536 10 0 60909 42300.00000 0 19124118.266 -8439906.020 14614257.522 10 0 60909 43200.00000 0 20741764.725 -8733638.631 11995348.404 10 0 60909 44100.00000 0 22002609.977 -9084148.099 9143281.086 10 0 60909 45000.00000 0 22883445.308 -9437626.121 6113424.335 10 0 60909 45900.00000 0 23374043.079 -9738021.825 2964651.994 10 0 60909 46800.00000 0 23477450.784 -9929620.541 -241803.570 10 0 60909 47700.00000 0 23209742.938 -9959621.679 -3443548.052 10 0 60909 48600.00000 0 22599240.847 -9780605.274 -6578247.835 10 0 60909 49500.00000 0 21685233.009 -9352781.171 -9584853.815 10 0 60909 50400.00000 0 20516250.335 -8645923.839 -12404801.325 10 0 60909 51300.00000 0 19147969.466 -7640909.102 -14983161.573 10 0 60909 52200.00000 0 17640833.367 -6330786.063 -17269720.999 10 0 60909 53100.00000 0 16057490.448 -4721337.353 -19219966.606 10 0 60909 54000.00000 0 14460161.005 -2831102.743 -20795957.445 10 0 60909 54900.00000 0 12908042.599 -690864.045 -21967064.987 10 0 60909 55800.00000 0 11454864.082 1657387.856 -22710567.971 10 0 60909 56700.00000 0 10146691.191 4161961.068 -23012090.473 10 0 60909 57600.00000 0 9020075.667 6763383.115 -22865875.171 10 0 60909 58500.00000 0 8100624.946 9396653.645 -22274887.126 10 0 60909 59400.00000 0 7402051.411 11993735.575 -21250746.754 10 0 60909 60300.00000 0 6925739.738 14486180.997 -19813493.986 10 0 60909 61200.00000 0 6660848.955 16807782.614 -17991188.811 10 0 60909 62100.00000 0 6584943.195 18897140.644 -15819356.545 10 0 60909 63000.00000 0 6665122.929 20700038.793 -13340289.061 10 0 60909 63900.00000 0 6859607.462 22171530.984 -10602215.998 10 0 60909 64800.00000 0 7119700.600 23277652.760 -7658362.401 10 0 60909 65700.00000 0 7392055.456 23996687.075 -4565911.396 10 0 60909 66600.00000 0 7621141.933 24319932.946 -1384892.366 10 0 60909 67500.00000 0 7751812.163 24251946.157 1822983.624 10 0 60909 68400.00000 0 7731855.242 23810243.288 4995518.471 10 0 60909 69300.00000 0 7514433.317 23024482.821 8071228.538 10 0 60909 70200.00000 0 7060296.264 21935158.678 10990529.965 10 0 60909 71100.00000 0 6339681.671 20591861.722 13696885.216 10 0 60909 72000.00000 0 5333820.138 19051182.452 16137889.220 10 0 60909 72900.00000 0 4035982.415 17374342.716 18266274.874 10 0 60909 73800.00000 0 2452023.991 15624655.183 20040819.375 10 0 60909 74700.00000 0 600403.537 13864916.090 21427134.798 10 0 60909 75600.00000 0 -1488326.729 12154839.269 22398328.552 10 0 60909 76500.00000 0 -3772539.003 10548637.492 22935521.728 10 0 60909 77400.00000 0 -6201015.576 9092850.966 23028215.822 10 0 60909 78300.00000 0 -8714842.382 7824512.616 22674500.932 10 0 60909 79200.00000 0 -11249633.818 6769725.884 21881101.166 10 0 60909 80100.00000 0 -13737998.299 5942713.956 20663255.792 10 0 60909 81000.00000 0 -16112143.862 5345379.922 19044437.433 10 0 60909 81900.00000 0 -18306516.885 4967396.325 17055911.515 10 0 60909 82800.00000 0 -20260365.001 4786820.706 14736144.101 10 0 60909 83700.00000 0 -21920117.859 4771211.650 12130068.184 10 0 60909 84600.00000 0 -23241486.325 4879198.868 9288221.377 10 0 60909 85500.00000 0 -24191191.869 5062441.388 6265770.795 10 0 60910 0.00000 0 -24748252.908 5267891.234 3121443.754 10 0 60910 900.00000 0 -24904773.425 5440266.671 -83616.787 10 0 60910 1800.00000 0 -24666199.162 5524629.342 -3287045.182 10 0 60910 2700.00000 0 -24051030.795 5468955.426 -6426476.149 10 0 60910 3600.00000 0 -23090004.821 5226590.135 -9440768.892 10 0 60910 4500.00000 0 -21824776.881 4758480.014 -12271208.841 10 0 60910 5400.00000 0 -20306163.083 4035086.679 -14862662.091 10 0 60910 6300.00000 0 -18592013.908 3037899.243 -17164658.914 10 0 60910 7200.00000 0 -16744810.929 1760479.851 -19132384.234 10 0 60910 8100.00000 0 -14829088.243 208996.749 -20727555.174 10 0 60910 9000.00000 0 -12908787.753 -1597778.787 -21919168.260 10 0 60910 9900.00000 0 -11044659.936 -3629012.423 -22684101.725 10 0 60910 10800.00000 0 -9291819.401 -5842861.644 -23007561.503 10 0 60910 11700.00000 0 -7697557.577 -8188001.751 -22883362.724 10 0 60910 12600.00000 0 -6299503.652 -10605559.355 -22314041.879 10 0 60910 13500.00000 0 -5124209.813 -13031372.689 -21310798.145 10 0 60910 14400.00000 0 -4186218.669 -15398484.502 -19893265.733 10 0 60910 15300.00000 0 -3487650.305 -17639763.539 -18089122.284 10 0 60910 16200.00000 0 -3018324.389 -19690545.498 -15933541.514 10 0 60910 17100.00000 0 -2756410.222 -21491183.592 -13468501.217 10 0 60910 18000.00000 0 -2669575.514 -22989402.729 -10741960.488 10 0 60910 18900.00000 0 -2716583.721 -24142359.681 -7806922.542 10 0 60910 19800.00000 0 -2849271.108 -24918324.010 -4720401.583 10 0 60910 20700.00000 0 -3014818.893 -25297910.474 -1542314.132 10 0 60910 21600.00000 0 -3158223.672 -25274812.425 1665683.498 10 0 60910 22500.00000 0 -3224861.213 -24856006.682 4841388.918 10 0 60910 23400.00000 0 -3163035.045 -24061422.282 7923255.406 10 0 60910 24300.00000 0 -2926402.184 -22923087.982 10851578.577 10 0 60910 25200.00000 0 -2476173.696 -21483794.990 13569645.363 10 0 60910 26100.00000 0 -1782997.449 -19795331.197 16024823.615 10 0 60910 27000.00000 0 -828443.798 -17916360.863 18169572.012 10 0 60910 27900.00000 0 393968.489 -15910038.015 19962351.657 10 0 60910 28800.00000 0 1878249.604 -13841452.539 21368422.672 10 0 60910 29700.00000 0 3605942.169 -11775014.550 22360511.309 10 0 60910 30600.00000 0 5546651.950 -9771884.896 22919335.506 10 0 60910 31500.00000 0 7659085.248 -7887557.623 23033979.201 10 0 60910 32400.00000 0 9892551.658 -6169693.882 22702108.410 10 0 60910 33300.00000 0 12188871.633 -4656296.425 21930024.671 10 0 60910 34200.00000 0 14484611.485 -3374299.977 20732554.226 10 0 60910 35100.00000 0 16713554.681 -2338635.717 19132774.147 10 0 60910 36000.00000 0 18809308.118 -1551808.677 17161579.437 10 0 60910 36900.00000 0 20707935.880 -1004005.768 14857098.109 10 0 60910 37800.00000 0 22350511.252 -673730.036 12263964.180 10 0 60910 38700.00000 0 23685480.469 -528934.781 9432461.364 10 0 60910 39600.00000 0 24670738.896 -528609.972 6417553.128 10 0 60910 40500.00000 0 25275331.827 -624754.084 3277817.330 10 0 60910 41400.00000 0 25480707.483 -764647.800 74305.964 10 0 60910 42300.00000 0 25281468.338 -893332.789 -3130647.493 10 0 60910 43200.00000 0 24685588.101 -956189.659 -6274649.208 10 0 60910 44100.00000 0 23714084.261 -901504.549 -9296469.843 10 0 60910 45000.00000 0 22400159.409 -682914.056 -12137248.000 10 0 60910 45900.00000 0 20787847.237 -261623.226 -14741647.590 10 0 60910 46800.00000 0 18930220.308 391699.048 -17058945.418 10 0 60910 47700.00000 0 16887235.402 1295429.040 -19044026.791 10 0 60910 48600.00000 0 14723307.574 2455966.061 -20658269.115 10 0 60910 49500.00000 0 12504715.397 3867223.585 -21870295.933 10 0 60910 50400.00000 0 10296946.781 5510655.974 -22656586.677 10 0 60910 51300.00000 0 8162096.903 7355820.406 -23001930.566 10 0 60910 52200.00000 0 6156427.115 9361450.861 -22899716.309 10 0 60910 53100.00000 0 4328186.596 11476999.357 -22352052.592 10 0 60910 54000.00000 0 2715786.974 13644580.045 -21369717.736 10 0 60910 54900.00000 0 1346404.968 15801234.839 -19971940.181 10 0 60910 55800.00000 0 235069.919 17881425.859 -18186014.714 10 0 60910 56700.00000 0 -615727.545 19819650.594 -16046762.478 10 0 60910 57600.00000 0 -1215891.382 21553070.590 -13595845.732 10 0 60910 58500.00000 0 -1587048.754 23024044.074 -10880951.125 10 0 60910 59400.00000 0 -1761381.638 24182456.935 -7954857.680 10 0 60910 60300.00000 0 -1780012.534 24987755.205 -4874407.926 10 0 60910 61200.00000 0 -1691013.852 25410594.613 -1699402.446 10 0 60910 62100.00000 0 -1547126.211 25434038.986 1508560.518 10 0 60910 63000.00000 0 -1403282.823 25054258.112 4687277.774 10 0 60910 63900.00000 0 -1314045.051 24280696.689 7775143.061 10 0 60910 64800.00000 0 -1331057.640 23135708.130 10712334.961 10 0 60910 65700.00000 0 -1500631.040 21653669.058 13441968.243 10 0 60910 66600.00000 0 -1861552.607 19879611.903 15911186.856 10 0 60910 67500.00000 0 -2443218.779 17867432.753 18072178.188 10 0 60910 68400.00000 0 -3264166.794 15677748.914 19883089.881 10 0 60910 69300.00000 0 -4331067.833 13375494.894 21308832.401 10 0 60910 70200.00000 0 -5638224.379 11027355.987 22321752.787 10 0 60910 71100.00000 0 -7167593.794 8699145.062 22902167.349 10 0 60910 72000.00000 0 -8889338.392 6453230.371 23038743.541 10 0 60910 72900.00000 0 -10762880.728 4346119.969 22728723.867 10 0 60910 73800.00000 0 -12738421.933 2426301.924 21977987.313 10 0 60910 74700.00000 0 -14758861.763 732429.143 20800946.534 10 0 60910 75600.00000 0 -16762042.222 -708076.448 19220281.890 10 0 60910 76500.00000 0 -18683222.877 -1879942.687 17266516.202 10 0 60910 77400.00000 0 -20457685.887 -2780450.784 14977437.130 10 0 60910 78300.00000 0 -22023362.731 -3419306.920 12397376.921 10 0 60910 79200.00000 0 -23323373.095 -3817987.110 9576362.199 10 0 60910 80100.00000 0 -24308369.282 -4008582.754 6569149.315 10 0 60910 81000.00000 0 -24938587.107 -4032195.474 3434163.311 10 0 60910 81900.00000 0 -25185516.000 -3936949.187 232360.935 10 0 60910 82800.00000 0 -25033116.788 -3775703.878 -2973959.902 10 0 60910 83700.00000 0 -24478534.491 -3603568.659 -6122380.389 10 0 60910 84600.00000 0 -23532274.858 -3475320.560 -9151586.051 10 0 60910 85500.00000 0 -22217836.180 -3442839.821 -12002571.849 10 0 60911 0.00000 0 -20570811.342 -3552671.904 -14619802.185 10 0 60911 900.00000 0 -18637496.641 -3843821.201 -16952303.412 10 0 60911 1800.00000 0 -16473068.168 -4345871.227 -18954663.089 10 0 60911 2700.00000 0 -14139399.709 -5077512.384 -20587920.519 10 0 60911 3600.00000 0 -11702616.261 -6045540.559 -21820327.312 10 0 60911 4500.00000 0 -9230485.327 -7244369.747 -22627964.563 10 0 60911 5400.00000 0 -6789755.616 -8656079.866 -22995204.664 10 0 60911 6300.00000 0 -4443554.482 -10250998.170 -22915009.232 10 0 60911 7200.00000 0 -2248952.586 -11988789.994 -22389058.016 10 0 60911 8100.00000 0 -254796.809 -13820013.105 -21427706.941 10 0 60911 9000.00000 0 1500099.200 -15688070.435 -20049776.815 10 0 60911 9900.00000 0 2988332.719 -17531479.247 -18282177.460 10 0 60911 10800.00000 0 4194802.140 -19286361.600 -16159375.153 10 0 60911 11700.00000 0 5117074.483 -20889051.804 -13722714.198 10 0 60911 12600.00000 0 5765217.022 -22278711.685 -11019606.281 10 0 60911 13500.00000 0 6161102.339 -23399844.303 -8102603.696 10 0 60911 14400.00000 0 6337218.094 -24204601.113 -5028374.756 10 0 60911 15300.00000 0 6335033.481 -24654786.262 -1856601.581 10 0 60911 16200.00000 0 6202992.804 -24723474.645 1351178.128 10 0 60911 17100.00000 0 5994221.942 -24396176.425 4532762.763 10 0 60911 18000.00000 0 5764045.269 -23671499.790 7626488.800 10 0 60911 18900.00000 0 5567418.320 -22561284.799 10572419.960 10 0 60911 19800.00000 0 5456384.631 -21090203.144 13313500.870 10 0 60911 20700.00000 0 5477663.889 -19294840.750 15796653.417 10 0 60911 21600.00000 0 5670472.793 -17222301.493 17973795.333 10 0 60911 22500.00000 0 6064670.110 -14928389.883 19802762.196 10 0 60911 23400.00000 0 6679303.852 -12475447.779 21248115.958 10 0 60911 24300.00000 0 7521621.700 -9929934.180 22281825.293 10 0 60911 25200.00000 0 8586586.698 -7359847.432 22883805.450 10 0 60911 26100.00000 0 9856919.381 -4832095.580 23042307.685 10 0 60911 27000.00000 0 11303665.843 -2409922.595 22754151.023 10 0 60911 27900.00000 0 12887269.596 -150495.914 22024791.684 10 0 60911 28800.00000 0 14559104.220 1897245.712 20868228.324 10 0 60911 29700.00000 0 16263404.599 3694395.587 19306743.964 10 0 60911 30600.00000 0 17939517.822 5213459.361 17370488.439 10 0 60911 31500.00000 0 19524381.034 6439255.064 15096908.032 10 0 60911 32400.00000 0 20955123.606 7369295.488 12530031.980 10 0 60911 33300.00000 0 22171685.115 8013636.911 9719628.329 10 0 60911 34200.00000 0 23119339.276 8394200.407 6720244.545 10 0 60911 35100.00000 0 23751017.221 8543594.268 3590150.816 10 0 60911 36000.00000 0 24029331.431 8503487.259 390206.351 10 0 60911 36900.00000 0 23928213.708 8322601.733 -2817329.018 10 0 60911 37800.00000 0 23434096.705 8054412.108 -5970014.143 10 0 60911 38700.00000 0 22546587.647 7754647.070 -9006452.109 10 0 60911 39600.00000 0 21278604.476 7478702.481 -11867496.885 10 0 60911 40500.00000 0 19655967.570 7279076.042 -14497416.347 10 0 60911 41400.00000 0 17716463.433 7202933.825 -16844987.833 10 0 60911 42300.00000 0 15508419.340 7289913.174 -18864503.837 10 0 60911 43200.00000 0 13088848.701 7570256.270 -20516667.573 10 0 60911 44100.00000 0 10521245.076 8063354.317 -21769360.565 10 0 60911 45000.00000 0 7873117.528 8776764.680 -22598267.250 10 0 60911 45900.00000 0 5213370.648 9705742.922 -22987344.685 10 0 60911 46800.00000 0 2609638.812 10833309.763 -22929128.682 10 0 60911 47700.00000 0 125685.846 12130850.155 -22424871.050 10 0 60911 48600.00000 0 -2181021.955 13559219.153 -21484505.978 10 0 60911 49500.00000 0 -4261469.079 15070307.913 -20126446.904 10 0 60911 50400.00000 0 -6076881.742 16609003.740 -18377218.517 10 0 60911 51300.00000 0 -7600083.411 18115461.646 -16270931.592 10 0 60911 52200.00000 0 -8816360.222 19527591.907 -13848611.393 10 0 60911 53100.00000 0 -9723802.174 20783659.010 -11157393.123 10 0 60911 54000.00000 0 -10333108.084 21824882.941 -8249600.412 10 0 60911 54900.00000 0 -10666864.664 22597933.701 -5181725.059 10 0 60911 55800.00000 0 -10758332.083 23057214.514 -2013328.122 10 0 60911 56700.00000 0 -10649788.910 23166838.231 1194116.098 10 0 60911 57600.00000 0 -10390507.599 22902214.328 4378410.654 10 0 60911 58500.00000 0 -10034446.966 22251180.322 7477837.976 10 0 60911 59400.00000 0 -9637759.586 21214630.542 10432350.203 10 0 60911 60300.00000 0 -9256219.557 19806616.158 13184725.113 10 0 60911 61200.00000 0 -8942679.003 18053912.374 15681665.773 10 0 60911 62100.00000 0 -8744660.217 15995070.697 17874823.383 10 0 60911 63000.00000 0 -8702184.407 13678995.353 19721724.394 10 0 60911 63900.00000 0 -8845928.011 11163102.432 21186584.932 10 0 60911 64800.00000 0 -9195783.781 8511137.266 22240997.706 10 0 60911 65700.00000 0 -9759887.103 5790739.423 22864478.929 10 0 60911 66600.00000 0 -10534148.744 3070854.948 23044865.265 10 0 60911 67500.00000 0 -11502314.394 419101.619 22778553.373 10 0 60911 68400.00000 0 -12636549.672 -2100805.014 22070577.295 10 0 60911 69300.00000 0 -13898527.541 -4431459.406 20934521.675 10 0 60911 70200.00000 0 -15240974.262 -6523908.791 19392271.599 10 0 60911 71100.00000 0 -16609610.800 -8339442.782 17473602.691 10 0 60911 72000.00000 0 -17945409.839 -9850955.823 15215618.067 10 0 60911 72900.00000 0 -19187074.961 -11043825.945 12662041.613 10 0 60911 73800.00000 0 -20273638.679 -11916273.144 9862380.000 10 0 60911 74700.00000 0 -21147070.317 -12479182.257 6870968.631 10 0 60911 75600.00000 0 -21754783.726 -12755397.667 3745919.382 10 0 60911 76500.00000 0 -22051938.325 -12778519.514 547990.274 10 0 60911 77400.00000 0 -22003435.200 -12591252.331 -2660600.680 10 0 60911 78300.00000 0 -21585522.493 -12243376.316 -5817393.767 10 0 60911 79200.00000 0 -20786940.670 -11789427.750 -8860913.345 10 0 60911 80100.00000 0 -19609557.684 -11286187.757 -11731875.982 10 0 60911 81000.00000 0 -18068465.802 -10790086.970 -14374356.192 10 0 60911 81900.00000 0 -16191534.832 -10354637.323 -16736885.850 10 0 60911 82800.00000 0 -14018439.717 -10028001.032 -18773464.828 10 0 60911 83700.00000 0 -11599202.877 -9850800.831 -20444462.438 10 0 60911 84600.00000 0 -8992312.247 -9854265.039 -21717391.728 10 0 60911 85500.00000 0 -6262493.884 -10058786.530 -22567541.455 99